Find Starlink 34527

NORAD ID: 64482 Int'l Des: 2025-133 Owner: SPXS Country: US Constellation: starlink operational
LEOCIRCULAR

現在のビュー

3D地球を読み込み中...

Starlink 34527について

説明を読み込み中...

次回通過

Passes for default location (London). Set your location on the main map for personalized predictions.

高度履歴

Loading altitude history...

軌道要素

1 64482U 25133L 26150.00984389 .00037103 00000-0 12569-2 0 9992
2 64482 53.1591 98.7358 0001541 98.9879 261.1296 15.30242985 53645
Epoch: May 30, 2026 • Age: 13 hours

現在のステータス

高度 478.4 km
速度 7.63 km/s
衛星直下点 -12.34°S, 166.94°W
打ち上げ日 Jun 23, 2025
運用期間 0.9 years
タイプ internet

技術仕様

分類 Payload
質量 575.00 kg
乾燥質量 530.00 kg
総質量 575.00 kg
長さ 0.30 m
直径 4.10 m
スパン 29.00 m
形状 Box + pan
製造者 SPXS
バスタイプ Starlink V2MO
フェーズステータス In Orbit
所有者/国 SPXS/US

Most Searched